This is the latest recevied weather packets stored in our database for station/object OE-11061. If no packets are shown the sender has not sent any weather packets the latest 10 day(s).
| Time | Temp. | Humidity | Pressure | Rain* | Wind** | Luminosity | Snow |
|---|---|---|---|---|---|---|---|
| 1787620292 | 14.44° C | 77% | 1011.1 hPa | 0 mm | - | 0 W/m² | - |
| 1787619920 | 14.44° C | 77% | 1011.1 hPa | 0 mm | - | 0 W/m² | - |
| 1787619319 | 14.44° C | 76% | 1010.9 hPa | 0 mm | - | 0 W/m² | - |
| 1787618492 | 15° C | 76% | 1010.8 hPa | 0 mm | - | 0 W/m² | - |
| 1787618120 | 15° C | 74% | 1011 hPa | 0 mm | - | 0 W/m² | - |
| 1787617520 | 15° C | 76% | 1011.4 hPa | 0 mm | - | 0 W/m² | - |
| 1787616693 | 15° C | 74% | 1011.5 hPa | 0 mm | - | 0 W/m² | - |
| 1787616320 | 15° C | 77% | 1011.6 hPa | 0 mm | - | 0 W/m² | - |
| 1787615720 | 15° C | 74% | 1011.9 hPa | 0 mm | - | 0 W/m² | - |
| 1787614892 | 15° C | 74% | 1012.1 hPa | 0 mm | - | 0 W/m² | - |
| 1787614520 | 15.56° C | 74% | 1011.8 hPa | 0 mm | - | 0 W/m² | - |
| 1787613920 | 15.56° C | 73% | 1012 hPa | 0 mm | - | 0 W/m² | - |
| 1787613320 | 15.56° C | 74% | 1012.3 hPa | 0 mm | - | 0 W/m² | - |
| 1787612719 | 15.56° C | 75% | 1012.6 hPa | 0 mm | - | 0 W/m² | - |
| 1787612120 | 16.11° C | 75% | 1012.8 hPa | 0 mm | - | 0 W/m² | - |
| 1787611293 | 16.11° C | 77% | 1013 hPa | 0 mm | - | 0 W/m² | - |
| 1787610919 | 16.11° C | 76% | 1013.1 hPa | 0 mm | - | 0 W/m² | - |
| 1787610320 | 16.67° C | 72% | 1013.2 hPa | 0 mm | - | 0 W/m² | - |
| 1787609493 | 16.67° C | 74% | 1013.4 hPa | 0 mm | - | 0 W/m² | - |
| 1787609120 | 16.67° C | 74% | 1013.4 hPa | 0 mm | - | 0 W/m² | - |
| 1787607693 | 17.22° C | 71% | 1013.3 hPa | 0 mm | - | 0 W/m² | - |
| 1787607320 | 17.22° C | 72% | 1013.2 hPa | 0 mm | - | 0 W/m² | - |
| 1787606719 | 17.22° C | 72% | 1013.5 hPa | 0 mm | - | 0 W/m² | - |
| 1787605893 | 17.78° C | 71% | 1013.7 hPa | 0 mm | - | 0 W/m² | - |
| 1787605520 | 17.22° C | 74% | 1013.9 hPa | 0 mm | - | 0 W/m² | - |
* Rain latest hour (hover to see other rain measurements)
** Current wind speed in m/s (hover to see current wind gust speed)